Kars, Turkey

3:01 PM +03 on December 13, 2017 (GMT +0300)
Kars

Weather History for LTCF - December, 2013

Change the Weather History Date:

Sunday, December 22, 2013

  Actual Average Record
Temperature  
Mean Temperature 9 °F -  
Max Temperature 26 °F 25 °F - ()
Min Temperature -8 °F 8 °F - ()
Degree Days  
Heating Degree Days 56    
Moisture  
Dew Point 1 °F    
Average Humidity 75    
Maximum Humidity 100    
Minimum Humidity 45    
Precipitation  
Precipitation 0.00 in 0.03 in - ()
Sea Level Pressure  
Sea Level Pressure 30.39 in    
Wind  
Wind Speed 2 mph ()    
Max Wind Speed 16 mph    
Max Gust Speed -    
Visibility 6.0 miles    
Events      
T = Trace of Precipitation, MM = Missing Value Source: Averaged Metar Reports

Daily Weather History Graph

Daily Weather History Graph

Search for Another Location

Airport or City:

Trip Planner

Search our weather history database for the weather conditions in past years. The results will help you decide how hot, cold, wet, or windy it might be!

Date:

Astronomy

Dec. 22, 2013 Rise Set
Actual Time 6:28 AM EET 3:44 PM EET
Civil Twilight 5:57 AM EET 4:15 PM EET
Nautical Twilight 5:22 AM EET 4:49 PM EET
Astronomical Twilight 4:49 AM EET 5:22 PM EET
Moon 8:37 PM EET (12/22) 9:12 AM EET (12/22)
Length of Visible Light 10h 18m
Length of Day
9h 16m
Waning Gibbous, 79% of the Moon is Illuminated
Dec 22
Waning Gibbous
Dec 25
Last Quarter
Jan 1
New
Jan 8
First Quarter
Jan 16
Full

Hourly Weather History & Observations

Time (EET) Temp. Windchill Dew Point Humidity Pressure Visibility Wind Dir Wind Speed Gust Speed Precip Events Conditions
12:50 AM -2.2 °F - -5.8 °F 85% 30.39 in - Calm Calm - N/A   Clear
1:50 AM -0.4 °F - -4.0 °F 85% 30.39 in - Calm Calm - N/A   Clear
2:00 AM -1 °F - -1 °F 100%  in 6 mi Calm Calm - -  
2:50 AM -0.4 °F - -4.0 °F 85% 30.36 in - Variable 2.3 mph - N/A   Clear
3:50 AM -0.4 °F - -4.0 °F 85% 30.36 in - Calm Calm - N/A   Clear
4:50 AM -2.2 °F - -5.8 °F 85% 30.36 in - Variable 1.2 mph - N/A   Clear
5:00 AM -2 °F - -2 °F 100%  in 6 mi NW 1.2 mph - -  
5:50 AM -2.2 °F - -5.8 °F 85% 30.39 in - Calm Calm - N/A   Clear
6:50 AM 1.4 °F - -2.2 °F 85% 30.39 in - Variable 1.2 mph - N/A   Clear
7:50 AM -0.4 °F - -5.8 °F 78% 30.39 in - Calm Calm - N/A   Clear
8:00 AM -1 °F - -2 °F 90%  in 6 mi Calm Calm - -  
8:50 AM 3.2 °F - -2.2 °F 78% 30.42 in - Calm Calm - N/A   Clear
9:50 AM 6.8 °F -0.1 °F -0.4 °F 72% 30.39 in - West 3.5 mph - N/A   Clear
10:50 AM 12.2 °F 6.1 °F 5.0 °F 73% 30.39 in - SSE 3.5 mph - N/A   Clear
11:00 AM 13 °F - 5 °F 60%  in 6 mi SSE 3.5 mph - -  
11:50 AM 23.0 °F - 8.6 °F 54% 30.36 in - Calm Calm - N/A   Clear
12:50 PM 23.0 °F - 10.4 °F 59% 30.36 in 6.2 mi Calm Calm - N/A   Partly Cloudy
1:50 PM 21.2 °F 14.9 °F 10.4 °F 63% 30.36 in 6.2 mi NE 4.6 mph - N/A   Partly Cloudy
2:00 PM 21 °F - 10 °F 50%  in 6 mi NE 4.6 mph - -   Scattered Clouds
2:50 PM 24.8 °F 12.4 °F 12.2 °F 59% 30.36 in - ENE 15.0 mph - N/A   Clear
3:50 PM 24.8 °F 14.0 °F 10.4 °F 54% 30.36 in - ENE 11.5 mph - N/A   Clear
4:50 PM 21.2 °F 8.3 °F 8.6 °F 58% 30.39 in - ENE 13.8 mph - N/A   Clear
5:00 PM 21 °F - 9 °F 45%  in 6 mi ENE 13.8 mph - -  
5:50 PM 23.0 °F 9.6 °F 10.4 °F 59% 30.39 in - NNE 16.1 mph - N/A   Clear
6:50 PM 12.2 °F 4.3 °F 5.0 °F 73% 30.42 in - NW 4.6 mph - N/A   Clear
7:50 PM 5.0 °F - -0.4 °F 78% 30.42 in - Calm Calm - N/A   Clear
8:00 PM 4 °F - 2 °F 87%  in 6 mi Calm Calm - -  
8:50 PM 5.0 °F - -0.4 °F 78% 30.42 in - Variable 1.2 mph - N/A   Clear
9:50 PM -0.4 °F - -4.0 °F 85% 30.42 in - Variable 2.3 mph - N/A   Clear
10:50 PM -0.4 °F - -7.6 °F 72% 30.45 in - Calm Calm - N/A   Clear
11:00 PM -1 °F - -3 °F 86%  in 6 mi Calm Calm - -  
11:50 PM -2.2 °F - -5.8 °F 85% 30.42 in - Variable 2.3 mph - N/A   Clear